Tracking 21612 objects as of 20-Oct-2020
HD Live streaming from Space Station
objects crossing your sky now

COSMOS 1771 FUEL CORE

Track COSMOS 1771 FUEL CORE now!
10-day predictions


NORAD ID: 17035
Int'l Code: 1986-062C
Perigee: 911.0 km
Apogee: 985.8 km
Inclination: 65.0 °
Period: 103.9 minutes
Semi major axis: 7319 km
RCS: 0.1808 m2 (medium)
Launch date: August 20, 1986
Source: Commonwealth of Independent States (former USSR) (CIS)
Launch site: TYURATAM MISSILE AND SPACE COMPLEX (TTMTR)

Note: This is SATELLITE DEBRIS
aabbcc
Your satellite tracking list
Your tracking list is empty




NASA's NSSDC Master Catalog

Two Line Element Set (TLE):
1 17035U 86062C   20293.47271215 -.00000100 +00000-0 -86574-5 0  9991
2 17035 064.9906 090.8993 0051096 236.8400 158.4623 13.86395958722113
Source of the keplerian elements: AFSPC